Погода в Гари

Погода в Гари : погода сейчас, прогноз погоды и архив. Всё, что Вы хотите узнать о погоде в Гари!

Поиск расширенной информации на нашем сайте:

Другие новости

Новости СМИ2

Главная страница сайта

Новости сайта

02.10.2013

Напоминаем, что на нашем новом сайте вы можете получить высокодетализированные прогнозы погоды по пунктам России, СНГ и мира (включающие важные для авиации метеовеличины, такие как направление и скорость ветра, видимость, явления погоды, количество и форма облачности, нижняя и верхняя граница облачности), а также ознакомиться с разнообразными материалами по авиационной метеорологии и подборкой полезных ссылок на эту тему.

Сайт Метеоцентр.Азия посвящён разработке технологий оптимизации авиаметеорологического обслуживания, включая проектирование и перспективное создание нескольких автоматизированных авиаметеорологических систем:
- система выпуска высокодетальных прогностических карт явлений погоды для нижнего воздушного пространства по России и ближнему зарубежью;
- система верификации прогнозов TAF (выпускаемых синоптиками официальных АМСГ РФ и ближнего зарубежья) и AUTOTAF (выпускаемых сайтом Метеоцентр.Азия) - выявление ошибок, онлайн-сопоставление с фактической погодой METAR, автоматическое внесение коррективов в прогнозы при резком отклонении фактической погоды от прогноза, подсчёт оправдываемости прогнозов по элементам и в целом;
- система обработки, анализа и отображения авиаметеорологической информации для применения провайдерами метеорологической информации.


Погода в Гари - сегодня

Время (UTC), дата Ветер
(°,м/с) 
Видим.   Явления Облачность Т
(°С)
Тd
(°С)
f(%) Тe
(°С)
Pmin
(гПа)
dP
(гПа)
Po
(мм)
O2
(г/м3)
Тmin Tmax R s Состояние
почвы
21 18.01.17 150 (ЮВ) 10 км    ясно 
-15.4 -16.7 90 -22  1024.2  -1.3  755  324           
00 19.01.17 160 (Ю) 10 км    4/0 верхняя 
[Ci fib]
-15.8 -17.1 90 -22  1023.1  -1.1  754  324           
03 19.01.17 150 (ЮВ) 10 км    ясно 
-16.7 -18 90 -23  1021.1  -2  753  324  -16.8      43  равномерный
сухой снег
100% 
06 19.01.17 150 (ЮВ) 20000 м    ясно 
-17.8 -19 90 -24  1020.7  -0.7  752  326  -18         
09 19.01.17 190 (Ю) 20000 м    ясно 
-14.2 -15.5 90 -19  1018.8  -1.4  751  321           
12 19.01.17 180 (Ю) 20000 м    ясно 
-14.3 -17 80 -20  1017.9  -0.9  750  320           
15 19.01.17 180 (Ю) 10 км    ясно 
-17.6 -19.5 85 -24  1015.8  -2.4  749  324    -12.3       
18 19.01.17 170 (Ю) 7{10}  10 км    4/0 средняя 
[Ac und]
-16.8 -18.7 85 -24  1011.9  -3.6  746  322           
21 19.01.17 170 (Ю) 8-10{11}  10 км    4/0 средняя 
[Ac und]
-16.6 -18.5 85 -24  1008.8  -3  744  320           
00 20.01.17 180 (Ю) 7-11{15}  10 км  слаб. снег  10/0 средняя 
[As op]
-15.8 -17.7 85 -23  1004.8  -4  741  318           
03 20.01.17 180 (Ю) 7-11{12}  10 км  слаб. снег  10/0 средняя 
[As op]
-13.5 -15.5 85 -20  1001.6  -3  738  314  -17.8    0.4  43  равномерный
сухой снег
100% 
06 20.01.17 180 (Ю) 8-11{11}  20000 м  {снег}  8/0 средняя 
[Ac lent]
-12.4 -14.4 85 -19  999.6  -1.9  737  312           
09 20.01.17 170 (Ю) 6{11}  20000 м  {снег}  8/0 средняя 
[Ac und]
-11 -13 85 -17  997.3  -2.1  735  310           
12 20.01.17 170 (Ю) 7{10}  10 км  слаб. снег  10/0 средняя 
[As op]
-11.2 -12.5 90 -17  995  -2.3  734  309           
15 20.01.17 170 (Ю) 7{10}  10 км  позёмок{снег}  8/0 средняя 
[Ac trans]
-11.4 -13.4 85 -18  992.5  -2.5  732  309      0.4     
18 20.01.17 170 (Ю) 6{11}  10 км  слаб. снег  10/0 средняя 
[As op]
-10.4 -11.7 90 -16  989.9  -2.5  730  307           
21 20.01.17 170 (Ю) 10 км  позёмок{снег}  6/0 средняя 
[Ac und]
-10.6 -11.9 90 -16  989.1  -0.7  729  307           
00 21.01.17 160 (Ю) 10 км  {снег}  6/0 средняя 
[Ac trans]
-11.6 -12.9 90 -17  985.7  -3.5  727  307           
03 21.01.17 170 (Ю) 10 км  слаб. снег  10/0 средняя 
[As op]
-10.4 -11.7 90 -14  984.7  -0.9  726  305  -12    0.8  43  равномерный
сухой снег
100% 
06 21.01.17 150 (ЮВ) 20000 м  {снег}  4/0 средняя 
[Ac trans]
-12.9 -14.2 90 -18  984.2  -0.6  726  308  -12.9         
09 21.01.17 200 (Ю) 20000 м    6/0 средняя 
[Ac trans]
-8.4 -9.5 92 -12  985.6  1.6  727  303           
12 21.01.17 230 (ЮЗ) 6{11}  10 км  слаб. снег  10/0 средняя 
[As op]
-6.8 -9.7 80 -12  988.4  2.9  729  302           
15 21.01.17 220 (ЮЗ) 5{10}  10 км  {снег}  6/0 средняя 
[Ac trans]
-8.7 -11.6 79 -13  989.6  730  305    -6.8  0.3     
18 21.01.17 230 (ЮЗ) 5{10}  10 км  {снег}  3/0 средняя 
[Ac trans]
-10.9 -13.5 81 -16  990  0.3  730  308           
21 21.01.17 210 (ЮЗ) 10 км    ясно 
-10.4 -13.2 80 -15  991.7  1.7  731  307           
Время (UTC), дата Ветер
(°,м/с) 
Видим.   Явления Облачность Т
(°С)
Тd
(°С)
f(%) Тe
(°С)
Pmin
(гПа)
dP
(гПа)
Po
(мм)
O2
(г/м3)
Тmin Tmax R s Состояние
почвы

Для получения пояснительной информации подведите курсор к названию столбца.

ПОГОДА в Гари - архив

Всё, что Вы хотите узнать о погоде в Гари - удобно и подробно!

Выберите нужную дату (начиная с 1 января 2015* года) и нажмите кнопку "Найти".
Будут отображены архивные сводки погоды по пункту Гари, начиная с указанной даты.


Отображать данные в формате CSV (для использования в таблицах Excel)


Внимание! Наш архив погоды предназначен исключительно для личного некоммерческого использования в познавательных целях. Если Вам необходимы официальные справки о состоянии погоды (для производственных, юридических, коммерческих и т.п. целей), обращайтесь в органы Росгидромета.

*Примечание: данная дата относится к архиву по метеостанциям СССР (Россия, СНГ, Балтия).
Архив по метеостанциям Зарубежной Европы и Азии (кроме Китая) хранится 10 дней, по другим регионам земного шара (Китай, Африка, Америка, Австралия, Океания) - 1 день.

Гари - район местоположения метеостанции


Название, широта, долгота, высота метеостанции:
Гари 59.4°ш. 62.3°д. 131 м над ур. моря [Российская Федерация]

Дополнительная информация

В oтличие oт бoльшинства пoгoдных сайтoв мы публикуем пoдрoбную метеoинфoрмацию в детальнoм прoфессиoнальнoм фoрмате.

Характеристики температуры и влажнoсти вoздуха измеряются на высoте 2 м в тени вдали oт зданий и деревьев.
Скoрoсть ветра измеряется на высoте 10 м (на урoвне рoста челoвека скoрoсть ветра ниже в 1.5-2 раза). Если метеoстанция нахoдится в гoрoде или в лесу, тo скoрoсть ветра занижена на 2-4 м/с пo сравнению с oткрытым местoм. Скoрoсть ветра над акватoриями крупных рек и oзёр, а также на вершинах хoлмoв на 2-5 м/с выше, чем в oбычных услoвиях.
Атмoсфернoе давление в разных тoчках местнoсти мoжет значительнo oтличаться oт давления на метеoстанции, в зависимoсти oт услoвий рельефа (при пoдъёме на 10 м давление пoнижается примернo на 1 мм рт.ст.).